Location: Helsinki
(60.1699°N, 24.9384°E)
Time: 17:19:29
(UTC+02:00)

S-56A Canister/Altair - Pass Details

Date: 30 October 2020
Orbit: 633 x 2500 km, 38.9° (Epoch: 29 November)

Event Time Altitude Azimuth Distance (km) Brightness Sun altitude
Rises 06:06:12 0° 203° (SSW) 3,438 10.7 -11.8°
Reaches altitude 10° 06:11:28 10° 163° (SSE) 2,922 10.8 -11.1°
Maximum altitude 06:12:31 10° 154° (SSE) 2,985 11.0 -11.0°
Drops below altitude 10° 06:13:36 10° 145° (SE) 3,105 11.3 -10.9°
Sets 06:20:36 0° 110° (ESE) 4,684 13.6 -10.0°
